Regional Weather Roundup
Issued by NWS Bismarck, ND

Home | Current Version | Previous Version | Text Only | Print | Product List | Glossary On
Versions: 1 2 3 4 5 6 7 8 9 10 11 12 13 14 15 16 17 18 19 20 21 22 23 24 25 26 27 28 29 30 31 32 33 34 35 36 37 38 39 40 41 42 43 44 45 46 47 48 49 50
000
ASUS43 KBIS 280610
RWRBIS

NWR BROADCAST TEXT
NATIONAL WEATHER SERVICE BISMARCK ND
100 AM CDT WED JUN 28 2017

NOTE: "FAIR" INDICATES FEW OR NO CLOUDS BELOW 12,000 FEET WITH NO
SIGNIFICANT WEATHER AND/OR OBSTRUCTIONS TO VISIBILITY.


CITY           SKY/WX    TMP DP  RH WIND       PRES   REMARKS
WILLISTON      MOCLDY    66  57  72 NW10      29.68R
MINOT          CLOUDY    68  58  70 NW20      29.55R
MINOT AFB      CLOUDY    67  58  73 NW17      29.55R
BISMARCK       CLOUDY    66  65  96 NW9       29.54R
DICKINSON      MOCLDY    65  55  70 NW9       29.65R
GARRISON         N/A     66  59  78 NW12      29.56S
HETTINGER ARPT CLOUDY    66  54  65 NW14G23   29.66R
JAMESTOWN      CLOUDY    68  57  68 NE9       29.47F
HAZEN          FAIR      68  59  73 SW3       29.58F
LINTON         FAIR     N/A N/A N/A W8        29.52R
MANDAN         FAIR      63  63 100 NW10      29.55S
STANLEY        FAIR      63  63 100 NW13      29.66R
TIOGA          FAIR      59  59 100 NW7       29.68R
WATFORD CITY   FAIR      64  57  77 NW7       29.67S
$$

CITY           SKY/WX    TMP DP  RH WIND       PRES   REMARKS
GRAND FORKS    CLOUDY    67  51  56 SE13      29.56F
GRAND FORKS AF CLOUDY    65  50  56 SE9       29.56F
DEVILS LAKE    LGT RAIN  66  59  78 S14       29.57S
FARGO          TSTM      63  57  81 S16G31    29.56R
CAVALIER       FAIR      66  48  52 S8        29.55F
GRAFTON        CLOUDY    64  50  59 SE10      29.58F
GWINNER        CLOUDY    68  61  77 S14G21    29.45F
LANGDON        MOCLDY    64  52  63 SE13      29.57F
ROLLA            N/A     63  55  77 S6        29.56F
$$

CITY           SKY/WX    TMP DP  RH WIND       PRES   REMARKS
ABERDEEN       CLOUDY    72  65  78 S15G22    29.46F
MOBRIDGE       MOCLDY    74  55  51 NW7       29.49S
RAPID CITY     PTCLDY    65  51  60 NW15      29.74S
GLASGOW        CLEAR     59  42  53 NE9       29.74R
SIDNEY         CLOUDY    65  56  72 NW8       29.71R
WOLF POINT     CLOUDY    63  46  54 W5        29.75R
GLENDIVE       CLOUDY    64  57  78 NW12      29.75R
MILES CITY     PTCLDY    63  52  67 NW8       29.76S
BAKER          CLOUDY    62  51  67 W8        29.75R
$$

CITY           SKY/WX    TMP DP  RH WIND       PRES   REMARKS
BILLINGS       PTCLDY    64  50  60 S7        29.82S
GREAT FALLS    CLOUDY    54  46  74 CALM      29.77S
REGINA         CLEAR     57  43  58 NW16G22   29.67R
ESTEVAN        MOCLDY    59  57  94 W9        29.65R
$$




USA.gov is the U.S. government's official web portal to all federal, state and local government web resources and services.